Flag for Mexico Weather past 2 weeks in Mexicali, Baja California, Mexico

Now
61 °F

Sunny.


Feels Like: 61 °F
Forecast: 41 / 60 °F
Wind: 8 mph from North

Location: Imperial County Airport

Current Time: Dec 26, 2014 at 3:38:06 PM

Latest Report: Dec 26, 2014 at 2:53 PM


Visibility: 10 mi

Pressure: 30.05 "Hg

Humidity: 17%

Dew point: 16 °F

Location of MexicaliLocation

Historic Weather in Mexicali — Graph

°F

Mexicali temperature yesterday

Maximum temperature yesterday: 67 °F (at 1:53 PM)
Minimum temperature yesterday: 45 °F (at 9:53 PM)
Average temperature yesterday: 59 °F

Past Weeks' High & Low Weather Summary

 TemperatureHumidityPressure
High78 °F (Dec 23, 1:53 PM)100% (Dec 12, 12:53 AM)30.25 "Hg (Dec 12, 12:53 AM)
Low37 °F (Dec 26, 6:53 AM)13% (Dec 23, 1:53 PM)29.66 "Hg (Dec 25, 2:53 AM)
Average56 °F59%30.03 "Hg
* Reported Dec 11 1:53 PM — Dec 26 1:53 PM, Mexicali, Weather by CustomWeather, © 2014

Note: Actual official high and low records may vary slightly from our data, if they occured in-between our weather recording intervals... More about our weather records

Advertising

Mexicali weather history for previous 24 hours

 ConditionsComfort  
Time TempWeatherWind HumidityBarometerVisibility
1:53 PM
Dec 26
61 °FSunny.12 mph18%30.05 "Hg10 mi
12:53 PM60 °FSunny.12 mph19%30.06 "Hg10 mi
11:53 AM60 °FSunny.10 mph20%30.07 "Hg10 mi
10:53 AM59 °FSunny.10 mph19%30.10 "Hg10 mi
9:53 AM57 °FSunny.9 mph28%30.11 "Hg10 mi
8:53 AM53 °FSunny.3 mph31%30.10 "Hg10 mi
7:53 AM42 °FSunny.6 mph55%30.08 "Hg10 mi
6:53 AM37 °FSunny.8 mph57%30.05 "Hg10 mi
5:53 AM38 °FClear.No wind55%30.02 "Hg10 mi
4:53 AM38 °FClear.6 mph55%29.99 "Hg10 mi
3:53 AM38 °FClear.8 mph58%29.97 "Hg10 mi
2:53 AM40 °FClear.3 mph51%29.96 "Hg10 mi
1:53 AM42 °FClear.6 mph49%29.96 "Hg10 mi
12:53 AM46 °FClear.6 mph40%29.93 "Hg10 mi
11:53 PM
Dec 25
51 °FClear.6 mph31%29.92 "Hg10 mi
10:53 PM52 °FClear.6 mph31%29.92 "Hg10 mi
9:53 PM45 °FClear.7 mph45%29.90 "Hg10 mi
8:53 PM48 °FPassing clouds.5 mph39%29.89 "Hg10 mi
7:53 PM53 °FOvercast.3 mph28%29.86 "Hg10 mi
6:53 PM58 °FOvercast.3 mph17%29.83 "Hg10 mi
5:53 PM60 °FOvercast.7 mph15%29.81 "Hg10 mi
4:53 PM62 °FOvercast.9 mph18%29.79 "Hg10 mi
3:53 PM64 °FPartly sunny.9 mph22%29.76 "Hg10 mi
Weather by CustomWeather, © 2014

See weather overviewHow to use our weather pages